Starlink 32864

operational
NORAD ID: 62862 Int'l Des: 2025-022 Owner: SPXS Country: US Constellation: starlink
LEOCIRCULAR

About Starlink 32864

Description loading...

Live Position

Loading 3D Globe...

Upcoming Passes

Altitude History

Altitude vs Time

uPlot chart will show altitude changes over time

Two-Line Element Set

1 62862U 25022J 25305.55860197 .00045347 00000-0 15315-2 0 9991
2 62862 53.1604 4.6888 0001255 85.7127 274.4018 15.30249749 42288
Epoch: Nov 1, 2025 • Age: 8 hours

Current Status

Altitude 475.6 km
Velocity 7.63 km/s
Sub-Earth Point 26.59°N, 22.76°E
Launch Date Feb 2, 2025
Age 0.7 years
Type internet

Technical Details

Classification Payload
Mass 730.00 kg
Dry Mass 700.00 kg
Total Mass 730.00 kg
Length 0.30 m
Diameter 4.10 m
Span 29.00 m
Shape Box + pan
Manufacturer SPXS
Bus Type Starlink V2M
Phase Status In Orbit
Owner/State SPXS/US

Large Constellations

Loading constellations...